Weather History for Rogers, AR

Change the Weather History Date:

Wednesday, March 6, 2013

  Actual Average Record
Temperature  
Mean Temperature 34 °F -  
Max Temperature 46 °F 51 °F 79 °F (2009)
Min Temperature 23 °F 31 °F 21 °F (2003)
Degree Days  
Heating Degree Days 30    
Moisture  
Dew Point 21 °F    
Average Humidity 57    
Maximum Humidity 81    
Minimum Humidity 35    
Precipitation  
Precipitation 0.00 in - - ()
Sea Level Pressure  
Sea Level Pressure 30.35 in    
Wind  
Wind Speed 7 mph (North)    
Max Wind Speed 12 mph    
Max Gust Speed 18 mph    
Visibility 10 miles    
Events      
Averages and records for this station are not official NWS values.
T = Trace of Precipitation, MM = Missing Value Source: NWS Daily Summary

Daily Weather History Graph

Daily Weather History Graph

Search for Another Location

Airport:

Trip Planner

Search our weather history database for the weather conditions in past years. The results will help you decide how hot, cold, wet, or windy it might be!

Date:

Astronomy

Mar. 06, 2013 Rise Set
Actual Time 6:39 AM CST 6:16 PM CST
Civil Twilight 6:13 AM CST 6:41 PM CST
Nautical Twilight 5:44 AM CST 7:11 PM CST
Astronomical Twilight 5:14 AM CST 7:41 PM CST
Moon 2:42 AM CST (3/6) 1:05 PM CST (3/6)
Length of Visible Light 12h 27m
Length of Day
11h 36m
Waning Crescent, 29% of the Moon is Illuminated
Mar 6
Waning Crescent
Mar 11
New
Mar 19
First Quarter
Mar 27
Full
Apr 2
Last Quarter

Hourly Weather History & Observations

Time (CST) Temp. Windchill Dew Point Humidity Pressure Visibility Wind Dir Wind Speed Gust Speed Precip Events Conditions
12:57 AM 28.9 °F 20.4 °F 19.0 °F 67% 30.35 in 10.0 mi NW 9.2 mph - N/A   Clear
1:57 AM 28.0 °F 18.1 °F 19.0 °F 69% 30.36 in 10.0 mi NW 11.5 mph - N/A   Clear
2:57 AM 27.0 °F 18.0 °F 18.0 °F 69% 30.35 in 10.0 mi NW 9.2 mph - N/A   Clear
3:57 AM 27.0 °F 18.0 °F 18.0 °F 69% 30.36 in 10.0 mi NNW 9.2 mph - N/A   Clear
4:57 AM 25.0 °F 17.1 °F 18.0 °F 75% 30.39 in 10.0 mi NW 6.9 mph - N/A   Clear
5:57 AM 24.1 °F 15.2 °F 18.0 °F 77% 30.41 in 10.0 mi NW 8.1 mph - N/A   Clear
6:57 AM 23.0 °F 17.0 °F 18.0 °F 81% 30.41 in 10.0 mi NNW 4.6 mph - N/A   Clear
8:57 AM 28.0 °F 18.1 °F 19.9 °F 72% 30.42 in 10.0 mi North 11.5 mph 18.4 mph N/A   Clear
9:57 AM 30.9 °F 22.8 °F 19.9 °F 64% 30.43 in 10.0 mi NE 9.2 mph - N/A   Clear
10:57 AM 34.0 °F 28.0 °F 19.9 °F 56% 30.42 in 10.0 mi North 6.9 mph - N/A   Clear
11:57 AM 37.0 °F 34.5 °F 19.9 °F 50% 30.41 in 10.0 mi Variable 3.5 mph - N/A   Clear
12:57 PM 41.0 °F - 21.0 °F 45% 30.39 in 10.0 mi Calm Calm - N/A   Clear
1:57 PM 44.1 °F 42.5 °F 19.9 °F 38% 30.35 in 10.0 mi Variable 3.5 mph - N/A   Clear
2:57 PM 46.9 °F - 21.9 °F 37% 30.32 in 10.0 mi Variable 3.5 mph - N/A   Clear
3:57 PM 46.0 °F 44.8 °F 19.9 °F 35% 30.33 in 10.0 mi NNW 3.5 mph - N/A   Clear
4:57 PM 46.0 °F 43.9 °F 19.9 °F 35% 30.31 in 10.0 mi NNE 4.6 mph - N/A   Clear
5:57 PM 43.0 °F 38.8 °F 24.1 °F 47% 30.30 in 10.0 mi NNE 6.9 mph - N/A   Clear
6:57 PM 39.9 °F 36.7 °F 24.1 °F 53% 30.30 in 10.0 mi NNE 4.6 mph - N/A   Clear
7:57 PM 39.0 °F 35.7 °F 24.1 °F 55% 30.31 in 10.0 mi NE 4.6 mph - N/A   Clear
8:57 PM 39.0 °F 35.7 °F 24.1 °F 55% 30.29 in 10.0 mi ENE 4.6 mph - N/A   Clear
9:57 PM 37.0 °F 34.5 °F 24.1 °F 59% 30.29 in 10.0 mi East 3.5 mph - N/A   Clear
10:57 PM 39.0 °F 34.8 °F 24.1 °F 55% 30.27 in 10.0 mi East 5.8 mph - N/A   Clear
11:57 PM 39.0 °F 34.0 °F 24.1 °F 55% 30.27 in 10.0 mi East 6.9 mph - N/A   Scattered Clouds